When you browse on this site, cookies collect data to enhance your experience and personalize the content and advertising you see.
Visit our Privacy Policy to learn more. By continuing to use the site, you agree to this use of cookies and data.
  • In Österreich
  • Länderverzeichnis
  • Für 7 Tage
  • Wassertemperatur
  • Wetterkarte
  • News
  • Widgets
  • user-avatar
    Anmelden

    Stündliche Wetter Santa Ana Hueytlalpan

    Heute, 23 Oktober, Mittwoch

    Zeit Temperatur Niederschläge Wind Luftdruck Luftfeuchtigkeit
    00:00 +12°C° 2.2 mm 0 m/S 589 mmHg 98%
    01:00 +12°C° 2.2 mm 0 m/S 589 mmHg 98%
    02:00 +12°C° 2.2 mm 0 m/S 589 mmHg 98%
    03:00 +12°C° 0.2 mm 0 m/S 589 mmHg 97%
    04:00 +12°C° 0.2 mm 0 m/S 588 mmHg 97%
    05:00 +12°C° 0.2 mm 1 m/S 588 mmHg 97%
    06:00 +13°C° 0 mm 1 m/S 589 mmHg 93%
    07:00 +14°C° 0 mm 1 m/S 590 mmHg 89%
    08:00 +15°C° 0 mm 1 m/S 590 mmHg 85%
    09:00 +16°C° 0.1 mm 1 m/S 590 mmHg 82%
    10:00 +17°C° 0.1 mm 2 m/S 590 mmHg 78%
    11:00 +18°C° 0.1 mm 2 m/S 590 mmHg 74%
    12:00 +18°C° 0.3 mm 2 m/S 590 mmHg 77%
    13:00 +17°C° 0.3 mm 2 m/S 589 mmHg 80%
    14:00 +17°C° 0.3 mm 2 m/S 588 mmHg 83%
    15:00 +16°C° 0.2 mm 2 m/S 588 mmHg 87%
    16:00 +15°C° 0.2 mm 2 m/S 587 mmHg 90%
    17:00 +14°C° 0.2 mm 1 m/S 587 mmHg 94%
    18:00 +14°C° 0.1 mm 1 m/S 587 mmHg 95%
    19:00 +14°C° 0.1 mm 1 m/S 588 mmHg 95%
    20:00 +13°C° 0.1 mm 1 m/S 588 mmHg 96%
    21:00 +13°C° 0 mm 1 m/S 588 mmHg 96%
    22:00 +13°C° 0 mm 1 m/S 588 mmHg 95%
    23:00 +12°C° 0 mm 1 m/S 587 mmHg 94%

    Morgen, 24 Oktober, Donnerstag

    Zeit Temperatur Niederschläge Wind Luftdruck Luftfeuchtigkeit
    00:00 +12°C° 0 mm 1 m/S 587 mmHg 94%
    01:00 +12°C° 0 mm 1 m/S 586 mmHg 94%
    02:00 +12°C° 0 mm 1 m/S 586 mmHg 94%
    03:00 +11°C° 0 mm 1 m/S 586 mmHg 93%
    04:00 +11°C° 0 mm 1 m/S 586 mmHg 93%
    05:00 +11°C° 0 mm 1 m/S 586 mmHg 93%
    06:00 +13°C° 0 mm 1 m/S 587 mmHg 87%
    07:00 +15°C° 0 mm 1 m/S 588 mmHg 80%
    08:00 +16°C° 0 mm 0 m/S 589 mmHg 74%
    09:00 +19°C° 0.1 mm 1 m/S 589 mmHg 72%
    10:00 +19°C° 0.1 mm 2 m/S 589 mmHg 71%
    11:00 +19°C° 0.1 mm 2 m/S 589 mmHg 70%
    12:00 +19°C° 0.4 mm 2 m/S 588 mmHg 74%
    13:00 +19°C° 0.4 mm 2 m/S 587 mmHg 78%
    14:00 +18°C° 0.4 mm 2 m/S 587 mmHg 82%
    15:00 +17°C° 0.2 mm 2 m/S 586 mmHg 87%
    16:00 +16°C° 0.2 mm 1 m/S 586 mmHg 91%
    17:00 +15°C° 0.2 mm 1 m/S 586 mmHg 96%
    18:00 +15°C° 0 mm 1 m/S 586 mmHg 96%
    19:00 +15°C° 0 mm 1 m/S 587 mmHg 96%
    20:00 +14°C° 0 mm 0 m/S 587 mmHg 96%
    21:00 +14°C° 0 mm 1 m/S 587 mmHg 95%
    22:00 +14°C° 0 mm 1 m/S 587 mmHg 95%
    23:00 +13°C° 0 mm 1 m/S 586 mmHg 94%

    übermorgen, 25 Oktober, Freitag

    Zeit Temperatur Niederschläge Wind Luftdruck Luftfeuchtigkeit
    00:00 +13°C° 0 mm 1 m/S 586 mmHg 94%
    01:00 +13°C° 0 mm 1 m/S 586 mmHg 94%
    02:00 +11°C° 0 mm 0 m/S 586 mmHg 93%
    03:00 +12°C° 0 mm 1 m/S 586 mmHg 94%
    04:00 +12°C° 0 mm 1 m/S 586 mmHg 94%
    05:00 +12°C° 0 mm 1 m/S 586 mmHg 94%
    06:00 +13°C° 0 mm 1 m/S 587 mmHg 90%
    07:00 +15°C° 0 mm 1 m/S 589 mmHg 86%
    08:00 +16°C° 0 mm 1 m/S 590 mmHg 82%
    09:00 +17°C° 0.5 mm 2 m/S 590 mmHg 83%
    10:00 +17°C° 0.5 mm 2 m/S 590 mmHg 83%
    11:00 +17°C° 0.5 mm 3 m/S 589 mmHg 84%
    12:00 +16°C° 1.4 mm 3 m/S 589 mmHg 87%
    13:00 +14°C° 1.4 mm 3 m/S 588 mmHg 90%
    14:00 +12°C° 1.4 mm 3 m/S 587 mmHg 94%
    15:00 +12°C° 0.7 mm 3 m/S 587 mmHg 95%
    16:00 +11°C° 0.7 mm 3 m/S 587 mmHg 96%
    17:00 +12°C° 0.7 mm 2 m/S 587 mmHg 97%
    18:00 +12°C° 0.3 mm 2 m/S 588 mmHg 97%
    19:00 +10°C° 0.3 mm 2 m/S 588 mmHg 97%
    20:00 +10°C° 0.3 mm 2 m/S 589 mmHg 97%
    21:00 +11°C° 0.2 mm 1 m/S 589 mmHg 97%
    22:00 +11°C° 0.2 mm 1 m/S 589 mmHg 97%
    23:00 +11°C° 0.2 mm 1 m/S 589 mmHg 98%

    26 Oktober, Samstag

    Zeit Temperatur Niederschläge Wind Luftdruck Luftfeuchtigkeit
    00:00 +11°C° 0.2 mm 1 m/S 589 mmHg 98%
    01:00 +11°C° 0.2 mm 1 m/S 588 mmHg 98%
    02:00 +11°C° 0.2 mm 1 m/S 588 mmHg 98%
    03:00 +11°C° 0.1 mm 1 m/S 588 mmHg 98%
    04:00 +11°C° 0.1 mm 1 m/S 588 mmHg 97%
    05:00 +10°C° 0.1 mm 0 m/S 588 mmHg 97%
    06:00 +10°C° 0 mm 0 m/S 588 mmHg 94%
    07:00 +11°C° 0 mm 0 m/S 589 mmHg 91%
    08:00 +13°C° 0 mm 1 m/S 590 mmHg 89%
    09:00 +13°C° 0 mm 1 m/S 589 mmHg 86%
    10:00 +14°C° 0 mm 1 m/S 589 mmHg 84%
    11:00 +15°C° 0 mm 1 m/S 589 mmHg 81%
    12:00 +15°C° 0.1 mm 1 m/S 588 mmHg 82%
    13:00 +14°C° 0.1 mm 2 m/S 587 mmHg 83%
    14:00 +14°C° 0.1 mm 2 m/S 587 mmHg 84%
    15:00 +14°C° 0.3 mm 1 m/S 587 mmHg 88%
    16:00 +13°C° 0.3 mm 1 m/S 587 mmHg 91%
    17:00 +12°C° 0.3 mm 1 m/S 587 mmHg 94%
    18:00 +12°C° 0.1 mm 1 m/S 587 mmHg 94%
    19:00 +12°C° 0.1 mm 1 m/S 587 mmHg 94%
    20:00 +10°C° 0.1 mm 0 m/S 587 mmHg 94%
    21:00 +11°C° 0 mm 0 m/S 587 mmHg 93%
    22:00 +12°C° 0 mm 1 m/S 587 mmHg 92%
    23:00 +12°C° 0 mm 1 m/S 587 mmHg 92%

    27 Oktober, Sonntag

    Zeit Temperatur Niederschläge Wind Luftdruck Luftfeuchtigkeit
    00:00 +12°C° 0 mm 1 m/S 587 mmHg 91%
    01:00 +12°C° 0 mm 1 m/S 586 mmHg 91%
    02:00 +12°C° 0 mm 1 m/S 586 mmHg 91%
    03:00 +12°C° 0 mm 1 m/S 586 mmHg 91%
    04:00 +12°C° 0 mm 1 m/S 586 mmHg 90%
    05:00 +12°C° 0 mm 1 m/S 586 mmHg 89%
    06:00 +14°C° 0 mm 1 m/S 587 mmHg 82%
    07:00 +16°C° 0 mm 1 m/S 589 mmHg 75%
    08:00 +19°C° 0 mm 1 m/S 590 mmHg 67%
    09:00 +20°C° 0.1 mm 1 m/S 590 mmHg 66%
    10:00 +20°C° 0.1 mm 2 m/S 590 mmHg 65%
    11:00 +20°C° 0.1 mm 2 m/S 590 mmHg 64%
    12:00 +20°C° 0.6 mm 2 m/S 589 mmHg 68%
    13:00 +19°C° 0.6 mm 2 m/S 588 mmHg 71%
    14:00 +19°C° 0.6 mm 2 m/S 588 mmHg 75%
    15:00 +17°C° 0.3 mm 2 m/S 587 mmHg 81%
    16:00 +16°C° 0.3 mm 1 m/S 587 mmHg 88%
    17:00 +14°C° 0.3 mm 1 m/S 586 mmHg 94%
    18:00 +14°C° 0 mm 1 m/S 587 mmHg 92%
    19:00 +14°C° 0 mm 1 m/S 587 mmHg 90%
    20:00 +13°C° 0 mm 1 m/S 587 mmHg 88%
    21:00 +13°C° 0 mm 1 m/S 587 mmHg 86%
    22:00 +13°C° 0 mm 1 m/S 587 mmHg 84%
    23:00 +13°C° 0 mm 1 m/S 587 mmHg 82%

    28 Oktober, Montag

    Zeit Temperatur Niederschläge Wind Luftdruck Luftfeuchtigkeit
    00:00 +12°C° 0 mm 1 m/S 587 mmHg 82%
    01:00 +12°C° 0 mm 1 m/S 587 mmHg 81%
    02:00 +12°C° 0 mm 1 m/S 586 mmHg 80%
    03:00 +12°C° 0 mm 1 m/S 586 mmHg 80%
    04:00 +11°C° 0 mm 0 m/S 587 mmHg 79%
    05:00 +11°C° 0 mm 0 m/S 587 mmHg 78%
    06:00 +13°C° 0 mm 1 m/S 588 mmHg 74%
    07:00 +15°C° 0 mm 1 m/S 589 mmHg 69%
    08:00 +18°C° 0 mm 1 m/S 590 mmHg 65%
    09:00 +17°C° 0 mm 2 m/S 591 mmHg 64%
    10:00 +18°C° 0 mm 3 m/S 591 mmHg 63%
    11:00 +19°C° 0 mm 3 m/S 591 mmHg 63%
    12:00 +18°C° 0 mm 3 m/S 590 mmHg 68%
    13:00 +17°C° 0 mm 3 m/S 589 mmHg 74%
    14:00 +15°C° 0 mm 4 m/S 588 mmHg 80%
    15:00 +14°C° 0.1 mm 3 m/S 588 mmHg 85%
    16:00 +12°C° 0.1 mm 3 m/S 588 mmHg 90%
    17:00 +12°C° 0.1 mm 2 m/S 588 mmHg 95%
    18:00 +12°C° 0.3 mm 2 m/S 589 mmHg 95%
    19:00 +12°C° 0.3 mm 2 m/S 589 mmHg 96%
    20:00 +12°C° 0.3 mm 2 m/S 589 mmHg 96%
    21:00 +12°C° 0.4 mm 2 m/S 589 mmHg 96%
    22:00 +10°C° 0.4 mm 2 m/S 589 mmHg 97%
    23:00 +10°C° 0.4 mm 2 m/S 589 mmHg 97%

    29 Oktober, Dienstag

    Zeit Temperatur Niederschläge Wind Luftdruck Luftfeuchtigkeit
    00:00 +10°C° 0.4 mm 2 m/S 589 mmHg 97%
    01:00 +11°C° 0.4 mm 1 m/S 589 mmHg 97%
    02:00 +11°C° 0.4 mm 1 m/S 589 mmHg 97%
    03:00 +11°C° 0.1 mm 1 m/S 589 mmHg 97%
    04:00 +11°C° 0.1 mm 1 m/S 589 mmHg 97%
    05:00 +11°C° 0.1 mm 1 m/S 589 mmHg 97%
    06:00 +11°C° 0.1 mm 1 m/S 589 mmHg 96%
    07:00 +11°C° 0.1 mm 1 m/S 590 mmHg 96%
    08:00 +11°C° 0.1 mm 1 m/S 590 mmHg 95%
    09:00 +11°C° 0 mm 1 m/S 590 mmHg 93%
    10:00 +12°C° 0 mm 1 m/S 590 mmHg 91%
    11:00 +12°C° 0 mm 2 m/S 590 mmHg 89%
    12:00 +12°C° 0 mm 2 m/S 589 mmHg 89%
    13:00 +13°C° 0 mm 2 m/S 589 mmHg 88%
    14:00 +13°C° 0 mm 2 m/S 588 mmHg 88%
    15:00 +12°C° 0 mm 2 m/S 588 mmHg 90%
    16:00 +12°C° 0 mm 2 m/S 588 mmHg 92%
    17:00 +10°C° 0 mm 2 m/S 588 mmHg 95%
    18:00 +11°C° 0 mm 1 m/S 588 mmHg 95%
    19:00 +11°C° 0 mm 1 m/S 589 mmHg 95%
    20:00 +10°C° 0 mm 1 m/S 589 mmHg 95%
    21:00 +10°C° 0 mm 1 m/S 589 mmHg 95%
    22:00 +10°C° 0 mm 1 m/S 589 mmHg 95%
    23:00 +10°C° 0 mm 1 m/S 589 mmHg 95%
    Mehr zeigen